Location: Sternwarte_Laufen
(47.9344°N, 12.9346°E)
Time: 07:35:53
(UTC+02:00)

Transit 4A - Visible Passes

Search period start: 08 June 2026 00:00
Search period end: 18 June 2026 00:00
Orbit: 860 x 980 km, 66.8° (Epoch: 7 June)

Date Brightness Start Highest point End Pass type
(mag) Time Alt. Az. Time Alt. Az. Time Alt. Az.
8 Jun 10.1 01:56:36 10° ESE 01:58:52 12° E 02:01:08 10° ENE visible
8 Jun 8.2 03:38:31 14° SSW 03:43:58 66° ESE 03:50:18 10° NE visible
9 Jun 9.8 02:03:37 11° SE 02:07:13 18° ESE 02:11:19 10° ENE visible
9 Jun 8.0 03:47:05 13° SSW 03:52:40 89° SE 03:59:06 10° NE visible
10 Jun 9.4 02:12:08 16° SSE 02:15:38 26° ESE 02:20:45 10° NE visible
10 Jun 8.2 03:55:36 12° SW 04:01:27 69° NW 04:07:51 10° NNE visible
11 Jun 8.9 02:20:37 21° SSE 02:24:07 37° ESE 02:29:53 10° NE visible
11 Jun 8.5 04:04:11 10° SW 04:10:18 52° NW 04:16:34 10° NNE visible
12 Jun 8.4 02:29:04 24° S 02:32:42 51° ESE 02:38:51 10° NE visible
12 Jun 8.9 04:13:21 10° WSW 04:19:14 40° NW 04:25:16 10° NNE visible
13 Jun 9.9 00:54:00 11° ESE 00:56:09 13° E 00:59:02 10° ENE visible
13 Jun 8.0 02:37:27 24° SSW 02:41:20 71° ESE 02:47:43 10° NE visible
13 Jun 9.3 04:22:39 10° W 04:28:15 32° NW 04:33:57 10° NNE visible
14 Jun 9.5 01:02:22 17° SE 01:04:30 20° ESE 01:08:55 10° ENE visible
14 Jun 8.0 02:45:49 22° SW 02:50:03 86° NW 02:56:31 10° NE visible
15 Jun 9.1 01:10:41 23° SE 01:12:57 28° ESE 01:18:15 10° NE visible
15 Jun 8.2 02:54:08 18° SW 02:58:51 65° NW 03:05:15 10° NNE visible
16 Jun 8.6 01:18:57 28° SSE 01:21:28 40° ESE 01:27:21 10° NE visible
16 Jun 8.7 03:02:24 14° WSW 03:07:44 49° NW 03:13:57 10° NNE visible
17 Jun 8.2 01:27:10 31° S 01:30:03 56° ESE 01:36:17 10° NE visible
17 Jun 9.1 03:10:50 10° WSW 03:16:40 38° NW 03:22:39 10° NNE visible
17 Jun 9.7 23:51:54 14° ESE 23:53:26 15° ESE 23:56:48 10° ENE visible
